FW2847 Weather Reports


Display with metric or nautical units.
time (UTC)temp
F
wind
direction
speed
MPH
gust
MPH
rain 1hr
in
rain 24hr
in
rain mn
in
humidity
%
barometer
mb
20260901013756 67 294 5.0 9.0 0.01 0.01 0.01 60 1020.6
20260901013752 67 300 5.0 9.0 0.01 0.01 0.01 61 1020.6
20260901012751 66 290 5.0 9.0 0.01 0.01 0.01 64 1020.6
20260901012253 67 309 5.0 9.0 0.01 0.01 0.01 64 1020.6
20260901011752 66 321 4.0 9.0 0.01 0.01 0.01 64 1020.6
20260901011252 66 292 4.0 7.0 0.01 0.01 0.01 66 1020.6
20260901010752 66 322 4.0 9.0 0.01 0.01 0.01 67 1020.6
20260901010253 66 312 4.0 9.0 0.01 0.01 0.01 67 1020.6
20260901005753 65 296 4.0 7.0 0.01 0.01 0.01 71 1020.6
20260901005252 65 302 6.0 12.0 0.01 0.01 0.01 71 1020.6
20260901004752 65 296 8.0 13.0 0.01 0.01 0.01 71 1020.6
20260901004251 67 303 10.0 17.0 0.01 0.01 0.01 66 1020.6
20260901003752 70 297 11.0 20.0 0.00 0.00 0.00 60 1020.6
20260901003251 74 293 10.0 20.0 0.00 0.00 0.00 46 1020.6
20260901002754 75 293 5.0 17.0 0.00 0.00 0.00 42 1020.6
20260901002252 77 322 1.0 12.0 0.00 0.00 0.00 37 1020.6
20260901001752 77 100 0.0 3.0 0.00 0.00 0.00 37 1020.6
20260901001523 78 96 1.0 3.0 0.00 0.00 0.00 37 1020.6
20260901000756 78 98 0.0 4.0 0.00 0.00 0.00 36 1020.6
20260901000751 78 92 0.0 3.0 0.00 0.00 0.00 36 1020.6
20260831235754 78 95 1.0 5.0 0.00 0.00 0.00 35 1020.6
20260831235252 78 87 1.0 5.0 0.00 0.00 0.00 35 1020.6
20260831235024 79 72 1.0 3.0 0.00 0.00 0.00 34 1020.6
20260831234254 79 72 2.0 5.0 0.00 0.00 0.00 35 1020.6
20260831233752 79 88 3.0 6.0 0.00 0.00 0.00 35 1020.6
20260831233252 80 64 3.0 6.0 0.00 0.00 0.00 35 1020.6
20260831232749 80 78 3.0 6.0 0.00 0.00 0.00 34 1020.6
20260831232251 80 51 3.0 6.0 0.00 0.00 0.00 33 1020.6
20260831231750 81 70 2.0 6.0 0.00 0.00 0.00 33 1020.6
20260831231251 81 34 3.0 8.0 0.00 0.00 0.00 34 1020.6
20260831230753 81 52 2.0 8.0 0.00 0.00 0.00 34 1020.6
20260831230747 81 68 4.0 8.0 0.00 0.00 0.00 33 1020.6
20260831230018 81 98 1.0 5.0 0.00 0.00 0.00 34 1020.6
20260831225249 80 79 2.0 5.0 0.00 0.00 0.00 35 1020.6
20260831224749 80 89 3.0 7.0 0.00 0.00 0.00 35 1020.6
20260831224517 80 57 2.0 7.0 0.00 0.00 0.00 35 1020.6
20260831223747 80 82 3.0 8.0 0.00 0.00 0.00 34 1020.6
20260831223248 81 68 4.0 8.0 0.00 0.00 0.00 34 1020.6
20260831223016 81 118 3.0 8.0 0.00 0.00 0.00 34 1020.6
20260831222245 80 88 2.0 6.0 0.00 0.00 0.00 35 1020.6
20260831221748 80 112 1.0 6.0 0.00 0.00 0.00 35 1020.6
20260831221517 80 85 1.0 6.0 0.00 0.00 0.00 35 1020.6
20260831221016 80 79 0.0 3.0 0.00 0.00 0.00 35 1020.6
20260831220518 80 98 0.0 2.0 0.00 0.00 0.00 35 1020.6
20260831215745 80 65 1.0 4.0 0.00 0.00 0.00 35 1020.6
20260831215248 80 75 2.0 5.0 0.00 0.00 0.00 34 1020.6
20260831214747 80 104 2.0 5.0 0.00 0.00 0.00 35 1020.6
20260831214244 80 66 2.0 7.0 0.00 0.00 0.00 35 1020.6
20260831213744 80 82 1.0 7.0 0.00 0.00 0.00 35 1020.6
20260831213246 80 238 2.0 8.0 0.00 0.00 0.00 35 1020.6
20260831212747 80 72 2.0 8.0 0.00 0.00 0.00 35 1020.6
20260831212741 80 96 2.0 8.0 0.00 0.00 0.00 35 1020.6
20260831211743 80 64 3.0 8.0 0.00 0.00 0.00 36 1020.6
20260831211239 80 67 4.0 8.0 0.00 0.00 0.00 34 1020.6
20260831210739 80 74 3.0 8.0 0.00 0.00 0.00 35 1020.6
20260831210241 80 79 2.0 6.0 0.00 0.00 0.00 35 1020.6
20260831205738 80 83 0.0 2.0 0.00 0.00 0.00 35 1020.6
20260831205237 80 147 0.0 3.0 0.00 0.00 0.00 35 1020.6
20260831204740 80 132 1.0 4.0 0.00 0.00 0.00 36 1020.6
20260831204509 79 100 3.0 9.0 0.00 0.00 0.00 36 1020.6
20260831203735 79 70 3.0 9.0 0.00 0.01 0.00 36 1020.6
20260831203235 79 105 2.0 7.0 0.00 0.02 0.00 35 1020.6
20260831202738 80 103 0.0 2.0 0.00 0.04 0.00 36 1020.6
20260831202733 79 86 1.0 7.0 0.00 0.03 0.00 36 1020.6
20260831202005 79 160 1.0 5.0 0.00 0.04 0.00 35 1020.6
20260831201234 78 84 3.0 10.0 0.00 0.04 0.00 36 1020.6
20260831200736 79 86 3.0 10.0 0.00 0.04 0.00 36 1020.6
20260831200233 79 82 2.0 6.0 0.00 0.04 0.00 35 1020.6
20260831195734 79 79 2.0 8.0 0.00 0.04 0.00 36 1020.6
20260831195233 79 84 2.0 8.0 0.00 0.04 0.00 35 1020.6
20260831194736 79 246 1.0 5.0 0.00 0.04 0.00 36 1020.6
20260831194234 79 116 1.0 4.0 0.00 0.04 0.00 36 1020.6
20260831193731 79 130 1.0 4.0 0.00 0.04 0.00 35 1020.6
20260831193232 79 177 2.0 7.0 0.00 0.04 0.00 35 1020.6
20260831192732 79 107 2.0 7.0 0.00 0.04 0.00 35 1020.6
20260831192231 79 78 1.0 4.0 0.00 0.04 0.00 36 1020.6
20260831191732 78 107 2.0 4.0 0.00 0.04 0.00 38 1020.6
20260831191231 78 108 1.0 4.0 0.00 0.04 0.00 37 1020.6
20260831191005 78 75 1.0 3.0 0.00 0.04 0.00 37 1020.6
20260831190231 78 118 1.0 3.0 0.00 0.04 0.00 35 1020.6
20260831185733 78 98 0.0 3.0 0.00 0.04 0.00 37 1020.6
20260831185232 77 229 0.0 1.0 0.00 0.04 0.00 38 1020.6
20260831184729 77 278 0.0 0.0 0.00 0.04 0.00 38 1020.6
20260831184230 77 117 0.0 0.0 0.00 0.04 0.00 37 1020.6
20260831183731 77 105 0.0 0.0 0.00 0.04 0.00 38 1020.6
20260831183229 77 108 0.0 2.0 0.00 0.04 0.00 37 1020.6
20260831182730 77 99 0.0 2.0 0.00 0.04 0.00 38 1020.6
20260831182229 78 146 1.0 3.0 0.00 0.04 0.00 37 1020.6
20260831181730 77 130 1.0 4.0 0.00 0.04 0.00 36 1020.6
20260831181230 78 90 1.0 4.0 0.00 0.04 0.00 36 1020.6
20260831180959 78 116 0.0 3.0 0.00 0.04 0.00 36 1020.6
20260831180230 78 88 1.0 4.0 0.00 0.04 0.00 39 1020.6
20260831175728 76 89 1.0 4.0 0.00 0.04 0.00 37 1020.6
20260831175502 76 72 1.0 4.0 0.00 0.04 0.00 39 1020.6
20260831174729 75 95 2.0 4.0 0.00 0.04 0.00 37 1020.6
20260831174229 75 110 1.0 4.0 0.00 0.04 0.00 40 1020.6
20260831173728 75 98 1.0 5.0 0.00 0.04 0.00 40 1020.6
20260831173227 75 105 2.0 5.0 0.00 0.04 0.00 40 1020.6
20260831172730 75 120 2.0 6.0 0.00 0.04 0.00 39 1020.6
20260831172228 75 86 2.0 6.0 0.00 0.04 0.00 39 1020.6
20260831171728 76 100 1.0 3.0 0.00 0.04 0.00 40 1020.6
20260831171500 76 90 1.0 4.0 0.00 0.04 0.00 40 1020.6
20260831170726 75 101 1.0 4.0 0.00 0.04 0.00 39 1020.6
20260831170225 76 109 1.0 4.0 0.00 0.04 0.00 38 1020.6
20260831165728 76 103 0.0 2.0 0.00 0.04 0.00 39 1020.6
20260831165723 76 98 0.0 2.0 0.00 0.04 0.00 39 1020.6
20260831164724 76 219 0.0 2.0 0.00 0.04 0.00 39 1020.6
20260831164221 75 118 1.0 4.0 0.00 0.04 0.00 40 1020.6
20260831163721 75 96 1.0 4.0 0.00 0.04 0.00 38 1020.6
20260831163222 75 82 0.0 2.0 0.00 0.04 0.00 39 1020.6
20260831162723 75 96 0.0 1.0 0.00 0.04 0.00 39 1020.6
20260831162220 76 110 0.0 0.0 0.00 0.04 0.00 40 1020.6
20260831161720 75 112 1.0 3.0 0.00 0.04 0.00 41 1020.6
20260831161451 75 103 1.0 3.0 0.00 0.04 0.00 41 1020.6
20260831160720 76 113 0.0 2.0 0.00 0.04 0.00 40 1020.6
20260831160218 75 98 0.0 2.0 0.00 0.04 0.00 40 1020.6
20260831155719 75 110 0.0 1.0 0.00 0.04 0.00 40 1020.6
20260831155219 75 233 0.0 2.0 0.00 0.04 0.00 40 1020.6
20260831154720 74 131 0.0 2.0 0.00 0.04 0.00 39 1020.6
20260831154221 74 97 0.0 2.0 0.00 0.04 0.00 40 1020.6
20260831153720 74 97 0.0 2.0 0.00 0.04 0.00 40 1020.6
20260831153219 75 98 0.0 0.0 0.00 0.04 0.00 39 1020.6
20260831152949 75 97 0.0 0.0 0.00 0.04 0.00 38 1020.6
20260831152217 75 291 0.0 0.0 0.00 0.04 0.00 38 1020.6
20260831151722 76 291 0.0 0.0 0.00 0.04 0.00 37 1020.6
20260831151718 76 291 0.0 0.0 0.00 0.04 0.00 36 1020.6
20260831150715 75 291 0.0 0.0 0.00 0.04 0.00 39 1020.6
20260831150216 74 291 0.0 0.0 0.00 0.04 0.00 39 1020.6
20260831145715 74 291 0.0 0.0 0.00 0.04 0.00 41 1020.6
20260831145216 74 328 0.0 0.0 0.00 0.04 0.00 39 1020.6
20260831144716 73 324 0.0 0.0 0.00 0.04 0.00 40 1020.6
20260831144445 73 324 0.0 0.0 0.00 0.04 0.00 41 1020.6
20260831143712 73 323 0.0 1.0 0.00 0.04 0.00 41 1020.6
20260831143212 72 324 0.0 2.0 0.00 0.04 0.00 44 1020.6
20260831142712 71 327 1.0 4.0 0.00 0.04 0.00 44 1020.6
20260831142212 71 316 1.0 4.0 0.00 0.04 0.00 44 1020.6
20260831141712 70 342 1.0 3.0 0.00 0.04 0.00 45 1020.6
20260831141211 69 302 0.0 2.0 0.00 0.04 0.00 47 1020.6
20260831140713 68 281 0.0 0.0 0.00 0.04 0.00 49 1020.6
20260831140212 68 262 0.0 0.0 0.00 0.04 0.00 50 1020.6
20260831135941 67 262 0.0 0.0 0.00 0.04 0.00 49 1020.6
20260831135828 67 262 0.0 0.0 0.00 0.04 0.00 51 1020.6
20260831134710 67 249 0.0 1.0 0.00 0.04 0.00 52 1020.6
20260831134210 67 250 0.0 1.0 0.00 0.04 0.00 50 1020.6
20260831133710 67 249 0.0 1.0 0.00 0.04 0.00 48 1020.6
20260831133210 67 249 0.0 0.0 0.00 0.04 0.00 47 1020.6
20260831132708 68 250 0.0 0.0 0.00 0.04 0.00 47 1020.6
20260831132209 68 250 0.0 0.0 0.00 0.04 0.00 45 1020.6
20260831131707 69 250 0.0 0.0 0.00 0.04 0.00 44 1020.6
20260831131208 69 250 0.0 0.0 0.00 0.04 0.00 43 1020.6
20260831130707 68 250 0.0 0.0 0.00 0.04 0.00 44 1020.6
20260831130208 68 249 0.0 0.0 0.00 0.04 0.00 44 1020.6
20260831125708 67 250 0.0 1.0 0.00 0.04 0.00 45 1020.6
20260831125206 67 250 0.0 1.0 0.00 0.04 0.00 45 1020.6
20260831124707 67 259 0.0 1.0 0.00 0.04 0.00 46 1020.6
20260831124208 67 270 0.0 0.0 0.00 0.04 0.00 47 1020.6
20260831123937 67 270 0.0 0.0 0.00 0.04 0.00 47 1020.6
20260831123207 67 269 0.0 0.0 0.00 0.04 0.00 46 1020.6
20260831122708 67 269 0.0 1.0 0.00 0.04 0.00 45 1020.6
20260831122438 67 269 0.0 1.0 0.00 0.04 0.00 46 1020.6
20260831121708 67 274 0.0 0.0 0.00 0.04 0.00 46 1020.6
20260831121208 67 278 0.0 1.0 0.00 0.04 0.00 44 1020.6
20260831120939 67 271 1.0 3.0 0.00 0.04 0.00 45 1020.6
20260831120207 67 278 1.0 3.0 0.00 0.04 0.00 46 1020.6
20260831115706 66 281 1.0 3.0 0.00 0.04 0.00 47 1020.6
20260831115208 65 278 1.0 3.0 0.00 0.04 0.00 49 1020.6
20260831114708 65 283 1.0 4.0 0.00 0.04 0.00 50 1020.6
20260831114208 65 284 1.0 4.0 0.00 0.04 0.00 51 1020.6
20260831113707 66 285 1.0 3.0 0.00 0.04 0.00 49 1020.6
20260831113206 65 271 1.0 3.0 0.00 0.04 0.00 49 1020.6
20260831112709 64 282 2.0 4.0 0.00 0.04 0.00 51 1020.6
20260831112208 65 288 2.0 4.0 0.00 0.04 0.00 51 1020.6
20260831111707 64 275 2.0 4.0 0.00 0.04 0.00 51 1020.6
20260831111206 65 293 2.0 5.0 0.00 0.04 0.00 50 1020.6
20260831110707 66 290 2.0 5.0 0.00 0.04 0.00 49 1020.6
20260831110208 66 290 2.0 5.0 0.00 0.04 0.00 47 1020.6
20260831105706 67 278 1.0 3.0 0.00 0.04 0.00 47 1020.6
20260831105206 67 276 1.0 3.0 0.00 0.04 0.00 46 1020.6
20260831104708 66 277 1.0 3.0 0.00 0.04 0.00 47 1020.6
20260831104207 65 281 0.0 2.0 0.00 0.04 0.00 49 1020.6
20260831103706 66 262 0.0 1.0 0.00 0.04 0.00 49 1020.6
20260831103206 65 262 0.0 0.0 0.00 0.04 0.00 49 1020.6
20260831102709 65 262 0.0 0.0 0.00 0.04 0.00 49 1020.6
20260831102207 65 262 0.0 0.0 0.00 0.04 0.00 50 1020.6
20260831101707 65 262 0.0 0.0 0.00 0.04 0.00 51 1020.6
20260831101208 65 262 0.0 0.0 0.00 0.04 0.00 51 1020.6
20260831100707 65 262 0.0 0.0 0.00 0.04 0.00 50 1020.6
20260831100206 66 307 0.0 0.0 0.00 0.04 0.00 48 1020.6
20260831095706 66 307 0.0 0.0 0.00 0.04 0.00 48 1020.6
20260831095202 66 307 0.0 0.0 0.00 0.04 0.00 48 1020.6
20260831094936 65 308 0.0 0.0 0.00 0.04 0.00 49 1020.6
20260831094202 65 307 0.0 0.0 0.00 0.04 0.00 50 1020.6
20260831093703 64 308 0.0 0.0 0.00 0.04 0.00 52 1020.6
20260831093203 65 337 0.0 1.0 0.00 0.04 0.00 51 1020.6
20260831092704 64 287 1.0 3.0 0.00 0.04 0.00 52 1020.6
20260831092202 65 287 1.0 3.0 0.00 0.04 0.00 51 1020.6
20260831091702 65 282 0.0 3.0 0.00 0.04 0.00 51 1020.6
20260831091203 64 285 0.0 3.0 0.00 0.04 0.00 53 1020.6
20260831090705 64 296 1.0 4.0 0.00 0.04 0.00 55 1020.6
20260831090203 64 282 2.0 4.0 0.00 0.04 0.00 56 1020.6
20260831085703 64 286 2.0 4.0 0.00 0.04 0.00 58 1020.6
20260831085200 64 291 1.0 4.0 0.00 0.04 0.00 60 1020.6
20260831084701 63 283 1.0 4.0 0.00 0.04 0.00 62 1020.6
20260831084201 63 289 0.0 1.0 0.00 0.04 0.00 63 1020.6
20260831083933 63 287 1.0 3.0 0.00 0.04 0.00 63 1020.6
20260831083201 64 300 1.0 3.0 0.00 0.04 0.00 61 1020.6
20260831082701 64 297 1.0 3.0 0.00 0.04 0.00 61 1020.6
20260831082201 64 283 0.0 2.0 0.00 0.04 0.00 61 1020.6
20260831081702 64 334 0.0 0.0 0.00 0.04 0.00 62 1020.6
20260831081433 64 343 0.0 0.0 0.00 0.04 0.00 63 1020.6
20260831080701 64 343 0.0 0.0 0.00 0.04 0.00 64 1020.6
20260831080201 64 343 0.0 0.0 0.00 0.04 0.00 65 1020.6
20260831075702 64 343 0.0 0.0 0.00 0.04 0.00 66 1020.6
20260831075202 63 343 0.0 0.0 0.00 0.04 0.00 66 1020.6
20260831074659 63 343 0.0 0.0 0.00 0.04 0.00 67 1020.6
20260831074159 64 30 0.0 0.0 0.00 0.04 0.00 65 1020.6
20260831073700 64 30 0.0 0.0 0.00 0.04 0.00 64 1020.6
20260831073159 64 30 0.0 0.0 0.00 0.04 0.00 63 1020.6
20260831072659 64 52 0.0 0.0 0.00 0.04 0.00 62 1020.6
20260831072158 64 51 0.0 0.0 0.00 0.04 0.00 61 1020.6
20260831071700 65 51 0.0 1.0 0.00 0.04 0.00 59 1020.6
20260831071430 65 51 0.0 1.0 0.00 0.04 0.00 57 1020.6
20260831070658 66 90 0.0 0.0 0.00 0.04 0.00 54 1020.6
20260831070159 65 90 0.0 0.0 0.00 0.04 0.00 53 1020.6
20260831065658 65 90 0.0 0.0 0.00 0.04 0.00 56 1020.6
20260831065156 65 90 0.0 3.0 0.00 0.04 0.00 57 1020.6
20260831064659 66 90 0.0 3.0 0.00 0.04 0.00 55 1020.6
20260831064158 67 17 0.0 3.0 0.00 0.04 0.00 48 1020.6
20260831063658 69 82 1.0 6.0 0.00 0.04 0.00 46 1020.6
20260831063156 70 112 1.0 6.0 0.00 0.04 0.00 43 1020.6
20260831062656 71 79 1.0 6.0 0.00 0.04 0.00 39 1020.6
20260831062156 71 85 1.0 5.0 0.00 0.04 0.00 41 1020.6
20260831061659 71 267 1.0 5.0 0.00 0.04 0.00 41 1020.6
20260831061155 70 273 2.0 5.0 0.00 0.04 0.00 41 1020.6
20260831060654 70 327 2.0 9.0 0.00 0.04 0.00 43 1020.6
20260831060154 70 262 2.0 9.0 0.00 0.04 0.00 43 1020.6
20260831055655 70 271 2.0 7.0 0.00 0.04 0.04 43 1020.6
20260831055426 70 285 3.0 7.0 0.00 0.04 0.04 44 1020.6
20260831054655 69 250 4.0 10.0 0.00 0.04 0.04 44 1020.6
20260831054427 68 213 5.0 10.0 0.00 0.04 0.04 48 1020.6
20260831053653 68 295 4.0 10.0 0.00 0.04 0.04 50 1020.6
20260831053425 68 258 3.0 9.0 0.00 0.04 0.04 50 1020.6
20260831052655 69 297 3.0 8.0 0.00 0.04 0.04 50 1020.6
20260831052423 69 283 3.0 6.0 0.00 0.04 0.04 49 1020.6
20260831051654 69 278 4.0 8.0 0.00 0.04 0.04 48 1020.6
20260831051152 70 288 5.0 11.0 0.00 0.04 0.04 47 1020.6
20260831050653 70 280 6.0 12.0 0.00 0.04 0.04 47 1020.6
20260831050152 70 302 7.0 12.0 0.00 0.04 0.04 47 1020.6
20260831045927 70 290 5.0 11.0 0.00 0.04 0.04 47 1020.6
20260831045704 70 290 5.0 11.0 0.00 0.04 0.04 47 1020.6
20260831045151 70 298 3.0 9.0 0.00 0.04 0.04 47 1020.6
20260831044650 69 281 2.0 7.0 0.00 0.04 0.04 47 1020.6
20260831044421 69 264 2.0 7.0 0.00 0.04 0.04 51 1020.6
20260831043650 67 297 2.0 5.0 0.00 0.04 0.04 55 1020.6
20260831043149 67 281 3.0 5.0 0.00 0.04 0.04 58 1020.6
20260831042649 67 302 1.0 5.0 0.00 0.04 0.04 64 1020.6
20260831042149 67 290 0.0 3.0 0.00 0.04 0.04 63 1020.6
20260831041649 67 271 0.0 0.0 0.00 0.04 0.04 63 1020.6
20260831041418 67 271 0.0 0.0 0.00 0.04 0.04 64 1020.6
20260831040650 67 271 0.0 0.0 0.00 0.04 0.04 65 1020.6
20260831040147 67 275 0.0 0.0 0.00 0.04 0.04 65 1020.6
20260831035649 67 275 0.0 0.0 0.00 0.04 0.04 65 1020.6
20260831035148 67 275 0.0 0.0 0.00 0.04 0.04 65 1020.6
20260831034649 66 276 0.0 0.0 0.00 0.04 0.04 66 1020.6
20260831034148 66 276 0.0 0.0 0.00 0.04 0.04 67 1020.6
20260831033648 66 276 0.0 0.0 0.00 0.04 0.04 67 1020.6
20260831033149 66 276 0.0 0.0 0.00 0.04 0.04 67 1020.6
20260831032651 66 276 0.0 0.0 0.00 0.04 0.04 67 1020.6
20260831032149 65 276 0.0 0.0 0.00 0.04 0.04 69 1020.6
20260831031649 65 277 0.0 0.0 0.00 0.04 0.04 71 1020.6
20260831031149 65 276 0.0 0.0 0.00 0.04 0.04 70 1020.6
20260831030650 64 277 0.0 0.0 0.00 0.04 0.04 70 1020.6
20260831030148 64 287 0.0 0.0 0.00 0.04 0.04 70 1020.6
20260831025649 64 258 0.0 0.0 0.00 0.04 0.04 71 1020.6
20260831025148 64 258 0.0 0.0 0.00 0.04 0.04 70 1020.6
20260831024650 64 258 0.0 0.0 0.00 0.04 0.04 71 1020.6
20260831024147 64 258 0.0 0.0 0.00 0.04 0.04 72 1020.6
20260831023647 64 229 0.0 0.0 0.00 0.04 0.04 73 1020.6
20260831023149 64 229 0.0 0.0 0.00 0.04 0.04 73 1020.6
20260831022649 65 229 0.0 0.0 0.00 0.04 0.04 72 1020.6
20260831022148 65 229 0.0 0.0 0.00 0.04 0.04 72 1020.6
20260831021647 65 229 0.0 0.0 0.00 0.04 0.04 70 1020.6
20260831021149 65 229 0.0 0.0 0.00 0.04 0.04 69 1020.6
20260831020650 65 229 0.0 0.0 0.00 0.04 0.04 68 1020.6
20260831020147 65 229 0.0 0.0 0.00 0.04 0.04 68 1020.6
20260831015648 66 229 0.0 0.0 0.00 0.04 0.04 67 1020.6
20260831015148 66 229 0.0 0.0 0.00 0.04 0.04 67 1020.6
20260831014648 66 229 0.0 0.0 0.00 0.04 0.04 65 1020.6
20260831014418 67 229 0.0 0.0 0.00 0.04 0.04 65 1020.6